SL-8 DEB, 27745

Orbit data source: Space-Track

SL-8 DEB, 27745 is space debris in LEO originally from a launch on Tue, 12 Feb 1991 UTC launched from the Plesetsk Missile And Space Complex (PKMTR). Debris objects in space refer to the collection of defunct objects orbiting the Earth. Examples of debris include non-operational satellites, rocket bodies, and fragments generated from explosions, collisions, or faulty payload assembly.

Loading next visibility...
Identifier
27745, 1991-009DA
Orbit
LEO
Country
Flag of CISCIS
Related business
Manufacturer
Unknown
Mission
Spacecraft
Bus & Motor
Unknown
Mass
Unknown
Launch date (UTC)
1991-02-12 (35 years ago)
Launch vehicle
Unknown
Launch site
Plesetsk Missile And Space Complex (PKMTR)
Object type
Payload
Rocket body
Debris
Shape & HBR
Unknown shape, 1.4 m
Radar Cross Section
Large (>1 m²)

Expand to show TLE details & history
Last TLE update: 2 days ago

TLE from 2 days ago
0 SL-8 DEB
1 27745U 91009DA  26171.22489591  .00000014  00000-0  23250-3 0  9991
2 27745  73.9226  91.2818 0143329  40.4931 110.4646 12.30835437348607
Epoch: 2026-06-20T05:23Z
TLE epoch observation values (Epoch: 2026-06-20T05:23:51.006Z)
Latitude
26.38938°
Longitude
-86.30481°
Altitude
1,589.523 km
Speed
7.058 km/s
True Right ascension
17h 32m 24s
True Declination
26° 16' 01"
Sunlit
Object was in full shadow at epoch
Visualization orbit readout
Latitude
Unknown
Longitude
Unknown
Altitude
Unknown
Speed
Unknown
Apparent Right ascension
Unknown
Apparent Declination
Unknown
Sunlit
N/A
Visualization observer readout
Local Sidereal Time
02:14:43
Azimuth
Unknown
Elevation
Unknown
Doppler factor
Unknown
Orbital elements
Apogee altitude
1,657.099 km
Perigee altitude
1,430.018 km
Semi-major axis
7,921.696 km
Eccentricity
0.01433
Inclination
73.9226°
RAAN
91.2818°
Arg. of periapsis
40.4931°
True anomaly
111.99361°
Mean anomaly
110.4646°
Eccentric anomaly
111.23008°
Mean motion
3.07834 °/min
Orbital period
116.95 mins
BSTAR
0.0002325
Loading maneuver chart data...
Computing Atmospheric mass density...
Loading historical data...
Loading historical data...
Loading historical data...
Loading historical data...
Loading historical data...
Loading historical data...
Loading historical data...

Documentation

Showing up to 5 results
|